Date String (YYYY-MM-DD hh:mm:ss) UTC,Instrument flags,absolute air pressure of the measurement (hPa),sample flow rate (lpm),inlet stack bypass flow (lpm),air temperature of the measurement (°C),ambient temperature measured by the external sensor (°C),aerosol sample conditioner tube jacket temperature (°C),OPC LED temperature (°C),internal box temperature (°C),relative humidity of the measurement (%),span deviation,mass concentration of particles derived from Lorenz-Mie calculation of OPC scattering (μg/m³),mass concentration of particles derived from Lorenz-Mie calculation of OPC scattering (μg/m³),mass concentration of particles derived from Lorenz-Mie calculation of OPC scattering (μg/m³)
DateTimeUTC,F1_M11,P_M11,Q1_M11,Q2_M11,T1_M11,T2_M11,T3_M11,T4_M11,T5_M11,U1_M11,ZSPAN_M11,X0_M11,X2_M11,X1_M11
2024-03-22 16:00:00,SystemResetWarning,0831.3,5.00,000.00,019.6,018.9,000.0,028.1,021.3,20.1,0000.0,0011.35,0003.16,0002.03
2024-03-22 16:01:00,SystemResetWarning,0831.3,5.00,000.00,019.6,018.9,000.0,028.1,021.3,20.2,0000.0,0011.30,0003.18,0002.01
2024-03-22 16:02:00,SystemResetWarning,0831.3,4.99,000.00,019.6,018.9,000.0,028.1,021.3,20.6,0000.0,0010.88,0003.18,0001.98
2024-03-22 16:03:00,SystemResetWarning,0831.3,5.00,000.00,019.6,018.9,000.0,028.1,021.4,20.6,0000.0,0010.44,0003.18,0001.96
2024-03-22 16:04:00,SystemResetWarning,0831.3,4.99,000.00,019.6,018.9,000.0,028.1,021.4,20.7,0000.0,0010.10,0003.15,0001.95
2024-03-22 16:05:00,SystemResetWarning,0831.3,5.00,000.00,019.6,018.9,000.0,028.1,021.4,20.7,0000.0,0010.44,0003.10,0001.92
2024-03-22 16:06:00,SystemResetWarning,0831.2,5.00,000.00,019.6,019.0,000.0,028.1,021.4,21.1,0000.0,0009.78,0003.04,0001.87
2024-03-22 16:07:00,SystemResetWarning,0831.3,5.01,000.00,019.6,019.0,000.0,028.1,021.4,21.1,0000.0,0010.13,0003.12,0001.85
2024-03-22 16:08:00,SystemResetWarning,0831.3,5.01,000.00,019.6,019.0,000.0,028.1,021.4,21.0,0000.0,0010.91,0003.15,0001.85
2024-03-22 16:09:00,SystemResetWarning,0831.2,5.00,000.00,019.6,019.0,000.0,028.1,021.4,20.5,0000.0,0011.20,0003.18,0001.85
2024-03-22 16:10:00,SystemResetWarning,0831.2,4.99,000.00,019.6,018.9,000.0,028.1,021.4,20.4,0000.0,0010.67,0003.20,0001.86
2024-03-22 16:11:00,SystemResetWarning,0831.1,5.00,000.00,019.6,018.9,000.0,028.1,021.4,20.6,0000.0,0010.84,0003.24,0001.90
2024-03-22 16:12:00,SystemResetWarning,0831.1,5.00,000.00,019.6,018.9,000.0,028.1,021.4,21.0,0000.0,0011.04,0003.27,0001.91
2024-03-22 16:13:00,SystemResetWarning,0831.1,5.01,000.00,019.7,019.0,000.0,028.1,021.4,21.1,0000.0,0011.37,0003.26,0001.92
2024-03-22 16:14:00,SystemResetWarning,0831.1,4.99,000.00,019.7,019.0,000.0,028.1,021.4,21.0,0000.0,0012.85,0003.26,0001.92
2024-03-22 16:15:00,SystemResetWarning,0831.1,4.99,000.00,019.7,019.0,000.0,028.2,021.4,20.9,0000.0,0012.60,0003.31,0001.93
2024-03-22 16:16:00,SystemResetWarning,0831.1,5.00,000.00,019.7,019.0,000.0,028.2,021.4,20.7,0000.0,0012.04,0003.34,0001.92
2024-03-22 16:17:00,SystemResetWarning,0831.1,4.99,000.00,019.7,019.0,000.0,028.2,021.4,20.6,0000.0,0012.72,0003.32,0001.92
2024-03-22 16:18:00,,,,,,,,,,,,,,
2024-03-22 16:19:00,,,,,,,,,,,,,,
2024-03-22 16:20:00,,,,,,,,,,,,,,
2024-03-22 16:21:00,,,,,,,,,,,,,,
2024-03-22 16:22:00,,,,,,,,,,,,,,
2024-03-22 16:23:00,,,,,,,,,,,,,,
2024-03-22 16:24:00,,,,,,,,,,,,,,
2024-03-22 16:25:00,,,,,,,,,,,,,,
2024-03-22 16:26:00,,,,,,,,,,,,,,
2024-03-22 16:27:00,,,,,,,,,,,,,,
2024-03-22 16:28:00,,,,,,,,,,,,,,
2024-03-22 16:29:00,,,,,,,,,,,,,,
2024-03-22 16:30:00,,,,,,,,,,,,,,
2024-03-22 16:31:00,,,,,,,,,,,,,,
2024-03-22 16:32:00,,,,,,,,,,,,,,
2024-03-22 16:33:00,SystemResetWarning,0831.0,5.00,000.00,019.9,019.3,000.0,028.3,021.6,19.2,0000.0,0009.70,0002.69,0001.58
2024-03-22 16:34:00,SystemResetWarning,0831.1,5.01,000.00,019.9,019.3,000.0,028.3,021.6,19.3,0000.0,0009.64,0002.66,0001.57
2024-03-22 16:35:00,SystemResetWarning,0831.0,5.01,000.00,019.9,019.2,000.0,028.3,021.6,19.5,0000.0,0009.08,0002.63,0001.56
2024-03-22 16:36:00,SystemResetWarning,0831.1,5.00,000.00,019.9,019.2,000.0,028.3,021.6,19.5,0000.0,0008.78,0002.56,0001.54
2024-03-22 16:37:00,SystemResetWarning,0831.1,5.00,000.00,019.9,019.2,000.0,028.3,021.6,19.2,0000.0,0009.08,0002.52,0001.51
2024-03-22 16:38:00,SystemResetWarning,0831.0,5.00,000.00,019.9,019.3,000.0,028.3,021.6,19.3,0000.0,0008.45,0002.47,0001.51
2024-03-22 16:39:00,SystemResetWarning,0831.1,4.99,000.00,019.9,019.3,000.0,028.3,021.7,19.5,0000.0,0007.34,0002.47,0001.50
2024-03-22 16:40:00,SystemResetWarning,0831.1,4.99,000.00,019.9,019.3,000.0,028.3,021.7,19.4,0000.0,0006.60,0002.52,0001.53
2024-03-22 16:41:00,SystemResetWarning,0831.0,4.99,000.00,019.9,019.3,000.0,028.3,021.7,19.3,0000.0,0007.23,0002.56,0001.56
2024-03-22 16:42:00,SystemResetWarning,0831.1,5.00,000.00,019.9,019.3,000.0,028.3,021.7,19.8,0000.0,0007.36,0002.55,0001.58
2024-03-22 16:43:00,SystemResetWarning,0831.1,5.01,000.00,019.9,019.3,000.0,028.4,021.7,19.4,0000.0,0007.37,0002.58,0001.60
2024-03-22 16:44:00,SystemResetWarning,0831.1,5.01,000.00,019.9,019.4,000.0,028.4,021.7,19.5,0000.0,0007.28,0002.62,0001.62
2024-03-22 16:45:00,SystemResetWarning,0831.1,4.99,000.00,019.9,019.4,000.0,028.4,021.8,19.3,0000.0,0007.18,0002.63,0001.64
2024-03-22 16:46:00,SystemResetWarning,0831.0,4.99,000.00,020.0,019.4,000.0,028.4,021.8,19.1,0000.0,0007.07,0002.62,0001.64
2024-03-22 16:47:00,SystemResetWarning,0831.0,4.99,000.00,020.0,019.4,000.0,028.4,021.8,19.9,0000.0,0007.08,0002.70,0001.65
2024-03-22 16:48:00,SystemResetWarning,0831.1,5.01,000.00,020.0,019.4,000.0,028.4,021.8,19.5,0000.0,0006.64,0002.73,0001.67
2024-03-22 16:49:00,SystemResetWarning,0831.0,5.01,000.00,020.0,019.4,000.0,028.4,021.8,19.0,0000.0,0007.36,0002.83,0001.70
2024-03-22 16:50:00,SystemResetWarning,0830.9,5.01,000.00,020.0,019.4,000.0,028.4,021.8,19.0,0000.0,0007.99,0002.87,0001.72
2024-03-22 16:51:00,SystemResetWarning,0830.9,5.00,000.00,020.0,019.4,000.0,028.4,021.8,19.1,0000.0,0007.94,0002.82,0001.73
2024-03-22 16:52:00,SystemResetWarning,0830.9,5.00,000.00,020.0,019.5,000.0,028.4,021.8,19.1,0000.0,0007.35,0002.79,0001.75
2024-03-22 16:53:00,SystemResetWarning,0830.9,4.99,000.00,020.1,019.5,000.0,028.5,021.9,19.5,0000.0,0007.12,0002.77,0001.75
2024-03-22 16:54:00,SystemResetWarning,0830.9,5.00,000.00,020.1,019.6,000.0,028.5,021.9,19.4,0000.0,0006.87,0002.75,0001.75
2024-03-22 16:55:00,SystemResetWarning,0830.9,5.00,000.00,020.1,019.6,000.0,028.5,021.9,19.5,0000.0,0006.72,0002.73,0001.74
2024-03-22 16:56:00,SystemResetWarning,0830.9,5.01,000.00,020.1,019.6,000.0,028.5,021.9,19.4,0000.0,0007.05,0002.76,0001.74
2024-03-22 16:57:00,SystemResetWarning,0830.9,5.01,000.00,020.1,019.6,000.0,028.5,021.9,19.2,0000.0,0007.23,0002.76,0001.74
2024-03-22 16:58:00,SystemResetWarning,0830.9,5.00,000.00,020.1,019.6,000.0,028.5,021.9,18.8,0000.0,0007.72,0002.77,0001.74
2024-03-22 16:59:00,SystemResetWarning,0830.8,4.99,000.00,020.2,019.7,000.0,028.5,021.9,18.9,0000.0,0007.93,0002.79,0001.75
